Weather History for Pittsfield, MA

Change the Weather History Date:

Saturday, January 18, 2014

  Actual Average Record
Temperature  
Mean Temperature 28 °F 20 °F  
Max Temperature 33 °F 29 °F 55 °F (2006)
Min Temperature 22 °F 11 °F -20 °F (1957)
Degree Days  
Heating Degree Days 37 45  
Month to date heating degree days 748 803  
Since 1 July heating degree days 3596 3641  
Cooling Degree Days 0 0  
Month to date cooling degree days 0 0  
Year to date cooling degree days 0 0  
Moisture  
Dew Point 25 °F    
Average Humidity 85    
Maximum Humidity 92    
Minimum Humidity 78    
Precipitation  
Precipitation 0.10 in 0.08 in 0.65 in (1930)
Month to date precipitation 3.26 1.85  
Year to date precipitation 3.26 1.85  
Sea Level Pressure  
Sea Level Pressure 29.68 in    
Wind  
Wind Speed 5 mph (NW)    
Max Wind Speed 20 mph    
Max Gust Speed 32 mph    
Visibility 3 miles    
Events Fog , Snow    
T = Trace of Precipitation, MM = Missing Value Source: NWS Daily Summary

Daily Weather History Graph

Daily Weather History Graph

Search for Another Location

Airport:

Trip Planner

Search our weather history database for the weather conditions in past years. The results will help you decide how hot, cold, wet, or windy it might be!

Date:

Astronomy

Jan. 18, 2014 Rise Set
Actual Time 7:18 AM EST 4:49 PM EST
Civil Twilight 6:47 AM EST 5:20 PM EST
Nautical Twilight 6:12 AM EST 5:54 PM EST
Astronomical Twilight 5:39 AM EST 6:28 PM EST
Moon 7:32 PM EST (1/18) 8:13 AM EST (1/18)
Length of Visible Light 10h 32m
Length of Day
9h 30m
Waning Gibbous, 94% of the Moon is Illuminated
Jan 18
Waning Gibbous
Jan 24
Last Quarter
Jan 30
New
Feb 6
First Quarter
Feb 14
Full

Hourly Weather History & Observations

Time (EST) Temp. Windchill Dew Point Humidity Pressure Visibility Wind Dir Wind Speed Gust Speed Precip Events Conditions
12:54 AM 25.0 °F - 21.0 °F 85% 29.86 in 6.0 mi Calm Calm - N/A   Clear
1:54 AM 24.1 °F - 21.9 °F 91% 29.85 in 5.0 mi Calm Calm - N/A   Clear
2:54 AM 24.1 °F - 21.0 °F 88% 29.85 in 6.0 mi Calm Calm - N/A   Clear
3:54 AM 24.1 °F - 21.9 °F 91% 29.82 in 4.0 mi Calm Calm - N/A   Clear
4:54 AM 25.0 °F - 21.9 °F 88% 29.81 in 5.0 mi Calm Calm - N/A   Overcast
5:54 AM 24.1 °F - 21.0 °F 88% 29.80 in 5.0 mi Calm Calm - N/A   Overcast
6:54 AM 26.1 °F - 21.9 °F 84% 29.77 in 7.0 mi Calm Calm - N/A   Mostly Cloudy
7:54 AM 27.0 °F - 23.0 °F 85% 29.74 in 5.0 mi Calm Calm - N/A   Overcast
8:54 AM 28.9 °F - 25.0 °F 85% 29.76 in 6.0 mi Calm Calm - N/A   Overcast
9:54 AM 32.0 °F 26.4 °F 26.1 °F 79% 29.75 in 7.0 mi ENE 5.8 mph - N/A   Overcast
10:01 AM 32.0 °F 25.6 °F 26.6 °F 80% 29.71 in 4.0 mi ENE 6.9 mph - 0.00 in Snow Light Snow
10:11 AM 32.0 °F 27.5 °F 26.6 °F 80% 29.70 in 2.5 mi ENE 4.6 mph - 0.00 in Snow Light Snow
10:18 AM 32.0 °F 27.5 °F 26.6 °F 80% 29.70 in 0.8 mi East 4.6 mph - 0.00 in Snow Light Snow
10:23 AM 30.2 °F 22.6 °F 28.4 °F 93% 29.69 in 0.2 mi NE 8.1 mph - 0.01 in Fog , Snow Snow
10:31 AM 30.2 °F 24.3 °F 28.4 °F 93% 29.69 in 0.5 mi NE 5.8 mph - 0.01 in Fog , Snow Snow
10:37 AM 30.2 °F 24.3 °F 28.4 °F 93% 29.69 in 0.2 mi NE 5.8 mph - 0.01 in Fog , Snow Snow
10:54 AM 30.9 °F 25.2 °F 28.9 °F 92% 29.71 in 0.2 mi NE 5.8 mph - 0.02 in Fog , Snow Snow
11:06 AM 30.2 °F 24.3 °F 28.4 °F 93% 29.66 in 0.8 mi NE 5.8 mph - 0.00 in Snow Light Snow
11:11 AM 30.2 °F 25.4 °F 30.2 °F 100% 29.66 in 1.2 mi NE 4.6 mph - 0.00 in Snow Light Snow
11:19 AM 30.2 °F 24.3 °F 28.4 °F 93% 29.65 in 2.0 mi NE 5.8 mph - 0.00 in   Overcast
11:28 AM 32.0 °F 26.4 °F 30.2 °F 93% 29.65 in 2.5 mi NNE 5.8 mph - 0.00 in   Overcast
11:35 AM 32.0 °F 27.5 °F 28.4 °F 87% 29.64 in 3.0 mi NNE 4.6 mph - 0.00 in   Overcast
11:54 AM 32.0 °F 27.5 °F 30.0 °F 92% 29.66 in 3.0 mi NE 4.6 mph - 0.00 in   Overcast
12:26 PM 32.0 °F - 30.2 °F 93% 29.60 in 4.0 mi Calm Calm - N/A   Overcast
12:32 PM 33.8 °F - 30.2 °F 87% 29.60 in 1.5 mi Calm Calm - 0.00 in Snow Light Snow
12:42 PM 32.0 °F - 28.4 °F 87% 29.60 in 0.5 mi Calm Calm - 0.00 in Fog , Snow Snow
12:48 PM 32.0 °F 28.7 °F 30.2 °F 93% 29.59 in 0.2 mi NNW 3.5 mph - 0.01 in Fog , Snow Snow
12:54 PM 32.0 °F - 30.0 °F 92% 29.63 in 0.2 mi Calm Calm - 0.02 in Fog , Snow Light Snow
1:28 PM 32.0 °F 27.5 °F 30.2 °F 93% 29.59 in 0.5 mi WNW 4.6 mph - 0.02 in Fog , Snow Light Snow
1:42 PM 32.0 °F 28.7 °F 30.2 °F 93% 29.58 in 0.2 mi WNW 3.5 mph - 0.03 in Fog , Snow Snow
1:54 PM 30.0 °F 25.2 °F 28.9 °F 96% 29.63 in 0.2 mi NW 4.6 mph - 0.04 in Fog , Snow Snow
2:06 PM 30.2 °F 24.3 °F 28.4 °F 93% 29.59 in 0.5 mi West 5.8 mph - 0.01 in Fog , Snow Light Snow
2:16 PM 30.2 °F 24.3 °F 28.4 °F 93% 29.59 in 0.8 mi WNW 5.8 mph - 0.01 in Snow Light Snow
2:27 PM 30.2 °F 24.3 °F 26.6 °F 86% 29.59 in 1.0 mi WNW 5.8 mph - 0.01 in Snow Light Snow
2:48 PM 30.2 °F 25.4 °F 26.6 °F 86% 29.60 in 0.8 mi WSW 4.6 mph - 0.01 in Snow Light Snow
2:54 PM 30.0 °F 22.4 °F 27.0 °F 88% 29.65 in 0.8 mi WSW 8.1 mph - 0.02 in Snow Light Snow
3:07 PM 30.2 °F 23.4 °F 26.6 °F 86% 29.60 in 1.0 mi West 6.9 mph - 0.00 in Snow Light Snow
3:33 PM 28.4 °F 19.7 °F 26.6 °F 93% 29.61 in 0.8 mi West 9.2 mph - 0.00 in Snow Light Snow
3:54 PM 28.9 °F 21.1 °F 26.1 °F 89% 29.66 in 1.2 mi West 8.1 mph - 0.00 in Snow Light Snow
4:05 PM 28.4 °F 21.2 °F 24.8 °F 86% 29.63 in 2.5 mi West 6.9 mph - 0.00 in Snow Light Snow
4:22 PM 28.4 °F 22.2 °F 24.8 °F 86% 29.63 in 1.5 mi Variable 5.8 mph - 0.00 in Snow Light Snow
4:34 PM 28.4 °F 17.5 °F 24.8 °F 86% 29.64 in 0.8 mi West 13.8 mph - 0.00 in Snow Light Snow
4:41 PM 28.4 °F 20.4 °F 24.8 °F 86% 29.64 in 0.8 mi West 8.1 mph - 0.00 in Snow Light Snow
4:54 PM 27.0 °F 18.0 °F 23.0 °F 85% 29.69 in 1.0 mi West 9.2 mph - 0.00 in Snow Light Snow
5:08 PM 26.6 °F 17.5 °F 23.0 °F 86% 29.65 in 2.0 mi West 9.2 mph - 0.00 in Snow Light Snow
5:47 PM 24.8 °F 14.6 °F 21.2 °F 86% 29.67 in 1.5 mi WSW 10.4 mph - 0.00 in Snow Light Snow
5:54 PM 25.0 °F 14.2 °F 21.0 °F 85% 29.72 in 1.5 mi West 11.5 mph - 0.00 in Snow Light Snow
6:08 PM 24.8 °F 13.4 °F 19.4 °F 80% 29.68 in 2.5 mi West 12.7 mph 20.7 mph 0.00 in Snow Light Snow
6:36 PM 24.8 °F 13.4 °F 19.4 °F 80% 29.68 in 3.0 mi WSW 12.7 mph 21.9 mph 0.00 in Snow Light Snow
6:54 PM 24.1 °F 12.5 °F 19.9 °F 84% 29.73 in 4.0 mi West 12.7 mph 21.9 mph 0.00 in Snow Light Snow
7:54 PM 23.0 °F 10.1 °F 19.0 °F 85% 29.73 in 5.0 mi West 15.0 mph 19.6 mph 0.00 in   Overcast
8:54 PM 23.0 °F 13.1 °F 18.0 °F 81% 29.74 in 8.0 mi West 9.2 mph - N/A   Overcast
9:54 PM 21.9 °F 10.4 °F 18.0 °F 85% 29.75 in 7.0 mi West 11.5 mph - N/A   Overcast
10:54 PM 21.9 °F 14.5 °F 18.0 °F 85% 29.74 in 8.0 mi West 5.8 mph 19.6 mph N/A   Overcast
11:54 PM 21.9 °F 9.8 °F 18.0 °F 85% 29.75 in 8.0 mi West 12.7 mph - N/A   Overcast